Home > Weather > Einbeck > Past weeks

Flag for Germany Past Weather in Einbeck, Lower Saxony, Germany — Yesterday and Last 2 Weeks

Now
68 °F

Partly sunny.


Feels Like: 68 °F
Forecast: 60 / 84 °F
Wind: 7 mph from Northwest

Location: Kassel / Calden

Current Time: Jul 23, 2016 at 5:15:13 PM

Latest Report: Jul 23, 2016 at 4:20 PM


Visibility: 6 mi

Pressure: 30.09 "Hg

Humidity: 88%

Dew Point: 64 °F

Location of EinbeckLocation

Past Weather in Einbeck — Graph

°F

Einbeck Temperature Yesterday

Maximum temperature yesterday: 84 °F (at 1:20 PM)
Minimum temperature yesterday: 64 °F (at 7:20 AM)
Average temperature yesterday: 73 °F

High & Low Weather Summary for the Past Weeks

 TemperatureHumidityPressure
High90 °F (Jul 20, 4:50 PM)100% (Jul 9, 7:20 AM)30.27 "Hg (Jul 9, 7:20 AM)
Low52 °F (Jul 14, 7:20 AM)31% (Jul 20, 2:50 PM)29.83 "Hg (Jul 10, 6:20 PM)
Average70 °F65%30.05 "Hg
* Reported Jul 8 3:20 PM — Jul 23 3:50 PM, Einbeck, Weather by CustomWeather, © 2016

Note: Actual official high and low records may vary slightly from our data, if they occured in-between our weather recording intervals... More about our weather records

Advertising

Einbeck Weather History for the Previous 24 Hours

Scroll right to see more
 ConditionsComfort  
Time TempWeatherWind HumidityBarometerVisibility
3:50 PM
Sat, Jul 23
68 °FCloudy.7 mph94%30.09 "Hg5 mi
3:20 PM66 °FCloudy.6 mph100%30.09 "Hg4 mi
2:50 PM66 °FLight rain. Cloudy.7 mph100%30.09 "Hg4 mi
2:20 PM64 °FLight rain. More clouds than sun.5 mph100%30.09 "Hg4 mi
1:50 PM64 °FLight rain. More clouds than sun.3 mph100%30.09 "Hg5 mi
1:20 PM63 °FLight rain. Mostly cloudy.3 mph100%30.09 "Hg4 mi
12:50 PM63 °FLight rain. More clouds than sun.3 mph100%30.09 "Hg4 mi
12:20 PM63 °FRain. Partly sunny.3 mph100%30.12 "Hg4 mi
11:50 AM63 °FLight rain. Mostly cloudy.3 mph100%30.09 "Hg5 mi
11:20 AM63 °FLight rain. Cloudy.3 mph100%30.09 "Hg5 mi
10:50 AM64 °FLight rain. Broken clouds.2 mph100%30.09 "Hg5 mi
10:20 AM63 °FLight rain. Broken clouds.3 mph100%30.09 "Hg5 mi
9:50 AM63 °FLight rain. More clouds than sun.2 mph100%30.07 "Hg4 mi
9:20 AM61 °FThunderstorms. Mostly cloudy.3 mph100%30.07 "Hg3 mi
8:50 AM64 °FSprinkles. Mostly cloudy.5 mph94%30.07 "HgN/A
8:20 AM64 °FBroken clouds.3 mph94%30.07 "HgN/A
7:50 AM64 °FFog.3 mph94%30.04 "HgN/A
7:20 AM64 °FFog.5 mph88%30.04 "HgN/A
9:20 PM
Fri, Jul 22
66 °FSunny.5 mph100%30.04 "Hg10 mi
8:50 PM66 °FPartly sunny.8 mph100%30.04 "HgN/A
8:20 PM68 °FBroken clouds.5 mph94%30.04 "HgN/A
7:50 PM68 °FBroken clouds.13 mph94%30.01 "HgN/A
7:20 PM68 °FBroken clouds.10 mph94%30.01 "HgN/A
6:50 PM66 °FLight rain. Broken clouds.6 mph100%30.04 "HgN/A
6:20 PM68 °FLight rain. Broken clouds.7 mph94%30.07 "HgN/A
5:50 PM68 °FPartly sunny.13 mph88%30.07 "HgN/A
5:20 PM70 °FScattered showers. Partly sunny.12 mph78%30.04 "HgN/A
Weather by CustomWeather, © 2016

See weather overviewHow to use our weather pages